Retour au catalogue

HULIANWANG DIGUI-32

ActifCommunicationsPO
NORAD 64285·PAYLOAD·🇨🇳 China

Lancé Jun 5, 2025 depuis Taiyuan Satellite Launch Center

Loading…

Prochains Passages (prochaines 24 heures)

TLE

FraisSource: Space-Track

Époque: Sep 14, 2026, 14:27 UTC

1 64285U 25121C   26257.60211020  .00000049  00000-0  80580-4 0  9998
2 64285  86.5010 343.2148 0001656 102.6161 257.5159 13.24412358 61999

Suivez HULIANWANG DIGUI-32 en temps réel avec AllMySat

Download on the App Store